{"data":{"norad_id":59430,"epoch":"2026-05-25T02:46:57.883008Z","epoch_age_seconds":68877,"freshness":"FRESH","line1":"1 59430U 24065K   26145.11594772 -.00000116  00000+0  82016-5 0  9992","line2":"2 59430  53.1620 286.4635 0000945 115.0221 245.0878 15.30181547120635","mean_motion":15.30181547,"eccentricity":9.45e-5,"inclination_deg":53.162,"raan_deg":286.4635,"arg_perigee_deg":115.0221,"mean_anomaly_deg":245.0878,"bstar":8.2016e-6,"rev_number":12063,"period_min":94.106480556062,"perigee_km":474.62252032754,"apogee_km":475.91781428216,"semimajor_km":6853.4071673048,"source":"CELESTRAK","updated_at":"2026-05-25T13:38:18.945509Z"}}